Theta_e
327 326 325 326 327 327 328 327 326 326 326 326 326 327 326 325 325 325 325 325 326 325 323 321 320 319 319 320 318 313 311 317 317 316 316 316 313 313
328 326 326 325 325 326 327 327 326 327 326 323 323 325 326 326 326 325 325 324 324 323 322 322 321 319 318 317 314 313 310 309 313 315 315 313 313 313
328 327 326 326 326 326 326 327 327 327 326 326 325 324 324 326 325 324 323 322 323 322 321 321 322 319 319 316 315 314 312 308 309 311 311 311 311 312
328 327 327 326 326 326 326 326 326 326 326 326 325 324 324 326 326 324 323 322 322 322 322 321 321 319 318 316 316 316 314 309 308 307 309 309 310 309
328 328 327 327 327 327 326 326 325 325 326 326 326 325 325 324 323 322 322 321 321 321 321 319 322 319 318 319 317 316 314 311 308 307 307 308 309 308
326 328 328 326 327 327 327 326 325 324 324 325 325 325 321 320 319 320 317 318 319 319 318 317 321 320 318 317 318 317 317 313 310 307 306 306 307 307
323 325 324 325 326 327 326 325 325 324 324 324 321 321 318 318 318 318 315 316 316 316 315 319 320 318 315 314 313 315 316 314 309 308 306 305 306 306
322 322 324 325 325 326 326 325 325 323 321 320 320 319 319 317 318 317 314 312 312 315 316 313 313 311 313 310 311 315 315 313 310 306 306 305 305 305
325 325 322 319 321 319 320 319 319 319 317 315 313 314 311 314 311 313 313 314 314 313 312 307 309 308 309 308 307 307 307 307 307 305 305 305 305 305
313 311 311 311 311 313 312 311 310 309 309 307 306 305 305 306 307 305 306 307 309 309 307 302 306 306 307 306 306 305 305 304 304 304 304 305 304 304
304 304 304 304 304 306 307 306 305 304 303 303 303 303 303 304 304 304 302 301 302 303 305 302 303 302 302 302 302 301 302 303 303 303 304 304 304 303
299 299 300 300 300 300 300 300 300 300 300 301 301 301 301 301 301 299 299 298 297 298 299 298 299 299 298 299 300 300 300 301 301 302 303 303 304 303
297 296 296 297 297 297 297 297 297 299 298 298 298 298 298 298 298 297 296 295 295 295 296 296 296 297 297 297 298 299 299 299 300 302 302 303 303 302
295 295 295 295 295 294 294 294 295 295 296 296 295 295 295 295 295 295 295 294 294 294 295 294 294 295 295 295 294 296 298 298 297 298 301 302 302 301
295 294 293 292 291 291 291 291 290 291 291 291 290 290 291 291 292 292 293 292 293 293 293 292 292 292 292 292 293 293 294 295 295 295 298 300 300 299
294 292 290 289 289 288 288 288 288 288 288 287 288 288 288 288 289 289 289 289 289 290 291 291 291 291 290 291 291 291 292 292 293 293 293 294 297 298
291 288 287 286 286 286 286 286 286 286 285 285 286 286 286 287 287 287 288 288 288 288 288 289 289 289 289 289 289 290 290 291 291 291 290 291 292 294
287 286 286 285 285 285 285 284 285 284 284 284 285 285 285 286 287 287 287 287 288 287 287 288 288 288 287 288 288 288 289 290 291 291 290 290 290 292
286 286 286 285 285 284 283 283 283 283 283 283 283 284 285 286 286 286 287 287 288 287 287 288 288 287 287 286 288 288 288 289 290 290 289 289 289 290
285 285 284 284 284 283 282 282 281 281 281 282 282 283 283 284 284 285 286 286 287 288 288 289 288 287 286 286 287 287 288 288 288 289 288 288 288 288
284 284 283 283 282 281 280 279 279 280 280 279 279 279 280 281 282 283 284 285 286 286 287 288 288 288 288 286 285 285 287 287 286 287 287 287 286 287
283 283 282 282 281 280 279 278 279 279 279 278 278 278 278 278 279 281 282 283 285 285 286 287 287 288 287 286 285 285 285 286 285 285 286 286 285 285
282 282 281 281 280 279 279 278 278 279 278 278 277 277 277 278 279 280 281 282 283 284 285 286 287 287 287 286 285 285 284 284 284 284 284 284 285 285
Wind_Speed
36 36 33 31 29 26 25 22 13 8 9 15 17 23 27 27 27 26 30 29 28 29 28 26 25 26 25 28 25 21 20 20 23 23 24 24 22 20
32 29 31 30 29 30 28 26 25 23 6 25 28 28 24 26 27 29 30 29 29 30 29 29 25 31 28 31 28 26 25 23 25 25 25 23 21 19
29 31 31 31 30 30 30 27 26 23 14 33 32 31 32 30 29 30 30 30 29 30 31 29 27 32 30 34 31 31 30 28 27 28 25 23 21 20
31 30 31 28 29 27 25 27 27 26 25 25 29 31 35 35 33 31 31 31 30 28 29 32 28 33 35 35 36 35 34 34 30 29 28 24 23 22
27 27 28 25 24 26 28 28 27 26 29 30 30 29 30 32 28 28 30 29 31 31 32 37 28 38 40 41 39 37 38 38 34 30 29 27 26 24
29 31 26 22 25 29 31 31 30 29 27 29 30 28 25 26 25 24 27 31 34 36 35 36 34 40 45 45 43 42 42 42 39 35 32 29 28 26
29 27 23 24 27 32 31 28 26 26 26 23 12 7 9 14 20 26 25 27 34 36 38 37 40 44 48 49 47 48 49 46 44 40 37 32 30 27
25 23 23 23 26 30 33 34 28 21 18 17 13 9 16 18 24 29 25 17 6 26 32 37 40 43 43 41 47 56 57 52 48 43 37 35 32 29
16 15 14 9 6 6 6 7 9 10 10 11 9 8 9 6 12 16 19 20 20 18 17 18 27 35 36 39 42 43 43 48 50 43 40 36 33 30
13 12 11 10 5 3 1 1 3 5 7 8 8 11 12 14 13 14 17 21 21 20 13 6 15 25 30 34 37 39 42 42 43 41 39 37 33 30
21 18 16 14 13 11 7 7 7 8 8 9 10 10 10 11 13 13 12 13 7 9 18 15 16 22 27 30 32 33 34 32 31 34 35 34 33 30
23 22 20 17 15 14 12 12 11 12 14 14 12 12 12 12 12 11 11 10 9 5 7 7 9 9 6 10 22 24 26 29 30 34 35 36 35 32
22 21 19 15 16 14 14 15 13 10 11 13 15 16 16 15 14 13 13 12 10 9 10 11 9 10 9 7 9 19 25 27 28 29 34 37 37 37
19 17 16 15 15 16 16 15 14 14 14 15 16 19 20 19 18 17 16 17 16 16 18 15 11 10 11 8 7 10 18 26 28 32 32 34 35 35
14 12 12 15 14 15 16 18 18 20 18 19 18 19 19 18 19 20 19 19 19 19 17 18 18 23 18 11 10 8 11 19 28 26 28 29 32 30
10 12 13 13 14 14 16 17 16 15 14 16 16 17 18 19 19 21 20 20 20 19 18 18 18 21 21 23 23 18 16 9 11 26 29 22 25 30
6 9 12 13 13 14 12 14 15 15 18 19 19 19 20 21 21 22 20 19 16 17 18 19 20 19 21 22 17 20 19 19 22 18 21 22 23 20
11 13 13 13 13 14 14 13 14 16 19 19 18 18 20 19 19 20 21 19 18 19 18 17 20 17 14 17 23 20 18 22 23 16 15 13 14 20
10 9 9 10 10 11 12 12 13 14 15 15 16 18 18 18 17 17 17 17 16 18 19 21 18 13 5 7 7 13 21 15 18 18 17 13 7 10
6 5 5 5 6 7 8 9 11 13 14 15 16 16 16 17 16 16 17 18 18 18 19 17 16 17 12 8 5 7 11 18 14 14 14 13 11 10
2 2 2 3 5 7 6 7 9 11 12 15 16 19 18 19 18 19 20 20 21 19 18 18 19 22 24 17 7 8 11 13 15 15 14 12 9 8
3 2 2 3 4 6 7 9 11 13 13 14 16 16 16 16 18 19 20 21 20 20 21 23 23 20 17 15 10 8 11 12 13 12 11 13 5 2
4 3 3 4 4 6 8 9 10 11 12 13 14 14 15 17 17 18 19 21 21 22 21 23 21 18 17 16 11 10 10 10 12 12 12 13 8 6
Wind_Direction
219 223 223 224 222 233 227 221 212 247 238 247 251 251 254 254 259 256 256 261 259 257 253 248 250 253 253 256 261 267 258 248 254 259 264 270 274 275
222 227 230 228 229 231 227 236 234 235 249 248 249 252 259 251 254 255 254 258 261 257 257 252 250 254 258 258 262 267 269 261 256 257 263 265 265 268
221 226 226 227 228 236 237 229 228 228 240 256 254 257 259 256 255 251 252 253 256 259 259 254 256 254 263 260 263 267 269 263 258 258 255 256 262 267
218 218 234 224 232 232 231 230 231 232 234 251 254 252 251 251 251 249 248 252 254 259 259 255 259 259 258 256 260 261 264 263 260 259 253 253 252 260
220 215 221 225 219 231 231 235 236 238 238 242 251 254 250 246 240 248 252 251 254 260 262 254 271 259 258 261 260 259 263 261 258 258 251 252 250 252
231 230 226 236 234 239 240 244 237 237 240 245 251 247 236 235 232 240 248 254 260 263 261 261 272 263 260 258 256 253 256 257 257 255 248 248 247 249
242 236 237 246 246 256 247 245 245 243 247 245 241 240 241 248 243 251 247 255 263 266 261 264 256 255 253 253 252 253 252 252 250 250 245 242 242 244
236 235 243 245 248 253 252 251 254 235 258 242 246 252 252 242 254 252 247 241 253 266 261 258 258 252 256 255 254 253 252 250 245 242 240 241 238 237
232 222 201 192 213 225 250 268 269 272 264 269 280 293 335 304 310 302 257 256 264 273 273 260 257 256 265 261 254 254 251 250 246 240 237 234 237 233
116 115 109 83 69 73 340 12 355 340 344 341 340 326 324 316 317 310 306 298 281 270 263 272 268 267 275 272 269 263 258 250 246 241 236 233 229 229
92 85 80 70 51 52 47 42 31 22 4 357 357 348 343 339 333 329 333 326 304 288 288 262 273 277 281 280 277 269 254 240 242 240 233 229 224 223
77 71 65 63 56 53 50 41 32 10 358 357 350 352 353 346 344 340 320 327 319 309 335 254 287 260 290 271 260 258 252 249 244 240 238 229 221 219
71 63 59 57 56 54 50 38 24 1 2 0 359 360 358 357 352 342 331 319 299 267 295 326 299 284 255 288 280 245 245 248 245 243 237 233 228 219
69 63 58 52 53 47 43 33 27 22 11 3 359 355 351 346 341 337 330 318 304 290 296 291 274 277 279 299 280 279 255 252 252 247 236 231 230 226
71 67 61 52 51 44 37 33 31 27 21 17 10 1 348 341 329 328 323 319 313 305 296 292 279 267 266 263 271 269 277 276 255 248 243 229 220 214
68 49 42 47 42 39 31 30 30 24 20 10 355 345 341 341 336 336 330 327 319 313 313 308 296 282 269 265 263 268 268 254 279 247 239 243 225 224
71 57 45 44 38 34 25 24 24 14 8 1 357 349 343 337 332 331 323 314 301 307 307 305 305 294 277 269 264 262 260 262 260 268 245 233 229 217
56 50 43 37 32 23 17 7 7 3 360 355 348 341 335 332 325 329 330 317 303 305 301 304 300 288 285 279 258 251 259 255 258 255 245 237 238 236
67 59 49 35 25 15 7 0 351 347 341 343 339 334 331 329 325 318 312 308 302 307 304 303 286 260 269 272 276 246 244 245 244 237 229 216 216 250
73 65 39 19 11 4 353 345 337 333 335 333 330 334 334 331 328 324 323 320 316 311 308 305 279 257 246 263 271 269 253 251 245 232 226 231 240 246
99 78 10 346 345 346 341 333 332 334 332 332 331 333 332 333 328 327 325 324 324 319 310 305 302 295 273 273 261 264 257 256 236 231 223 220 213 215
202 209 249 286 328 324 322 326 331 331 333 332 331 330 328 328 324 321 320 318 316 311 304 308 307 302 266 237 244 240 246 249 235 234 237 219 179 184
237 252 271 294 317 313 315 319 320 322 323 324 326 324 333 338 333 324 318 315 314 314 316 316 313 295 254 251 250 234 216 219 215 204 219 216 202 193